Regional Weather Roundup
Issued by NWS

Home | Current Version | Previous Version | Graphics & Text | Print | Product List | Glossary On
Versions: 1 2 3 4 5 6 7 8 9 10 11 12 13 14 15 16 17 18 19 20 21 22 23 24 25 26 27 28
000
ASUS45 KBOI 181810
RWRID

IDAHO REGIONAL WEATHER ROUNDUP
NATIONAL WEATHER SERVICE BOISE ID
1200 PM MDT WED OCT 18 2017

NOTE: "FAIR" INDICATES FEW OR NO CLOUDS BELOW 12000 FEET
WITH NO SIGNIFICANT WEATHER AND/OR OBSTRUCTIONS TO VISIBILITY

IDZ012-014-181900-
SOUTHWEST IDAHO


CITY           SKY/WX    TMP DP  RH WIND       PRES   REMARKS
BOISE            N/A     63  31  30 SE9       30.11F
CALDWELL       SUNNY     56  33  42 CALM      30.13S
MOUNTAIN HOME  SUNNY     60  27  29 E13       30.13F
$$

IDZ016-017-181900-
SOUTHCENTRAL IDAHO


CITY           SKY/WX    TMP DP  RH WIND       PRES   REMARKS
BURLEY         SUNNY     63  27  25 N5        30.17F
JEROME         SUNNY     60  25  26 CALM      30.18F
TWIN FALLS     SUNNY     68  22  17 SW5       30.17S
$$

IDZ019>023-181900-
SOUTHEAST IDAHO


CITY           SKY/WX    TMP DP  RH WIND       PRES   REMARKS
IDAHO FALLS    MOSUNNY   59  28  30 SW18      30.20S
POCATELLO      SUNNY     63  26  24 SW8       30.21S
REXBURG        SUNNY     57  26  30 SW14G22   30.19F
$$

IDZ006-010-011-018-031-032-181900-
CENTRAL IDAHO MOUNTAINS


CITY           SKY/WX    TMP DP  RH WIND       PRES   REMARKS
MCCALL         MOSUNNY   52  33  48 S10       30.13F
HAILEY         MOSUNNY   54  23  30 CALM      30.21F
STANLEY          N/A     50  29  44 CALM      30.21F
SALMON         CLOUDY    49  31  49 CALM      30.11F
CHALLIS        SUNNY     52  26  36 CALM      30.14F
$$

IDZ002-004-006-007-026-181900-
NORTHERN IDAHO


CITY           SKY/WX    TMP DP  RH WIND       PRES   REMARKS
LEWISTON       CLOUDY    53  42  66 NE8       30.00F
LOWELL           N/A     47  45  93 CALM      30.09F
COEUR D`ALENE  CLOUDY    50  38  63 S7        29.99S
MULLAN PASS    LGT RAIN  38  33  82 VRB5      30.00F WCI  34
$$




USA.gov is the U.S. government's official web portal to all federal, state and local government web resources and services.